Time,TemperatureF,DewpointF,PressureIn,WindDirection,WindDirectionDegrees,WindSpeedMPH,WindSpeedGustMPH,Humidity,HourlyPrecipIn,Conditions,Clouds,dailyrainin,SoftwareType,DateUTC
2013-05-12 00:10:00,54.4,47.3,29.82,WNW,292,5.0,16.0,77,0.00,,,0.00,VWS V12.07,2013-05-12 04:10:00,
2013-05-12 00:28:00,53.9,47.2,29.81,WNW,282,6.0,22.0,78,0.00,,,0.00,VWS V12.07,2013-05-12 04:28:00,
2013-05-12 00:40:00,53.2,46.5,29.81,NW,306,10.0,15.0,78,0.00,,,0.00,VWS V12.07,2013-05-12 04:40:00,
2013-05-12 00:58:00,52.9,46.2,29.81,NW,318,6.0,14.0,78,0.00,,,0.00,VWS V12.07,2013-05-12 04:58:00,
2013-05-12 01:10:00,52.8,45.1,29.81,WNW,284,6.0,13.0,75,0.00,,,0.00,VWS V12.07,2013-05-12 05:10:00,
2013-05-12 01:28:00,52.5,44.8,29.80,NW,308,3.0,14.0,75,0.00,,,0.00,VWS V12.07,2013-05-12 05:28:00,
2013-05-12 01:40:00,52.2,43.8,29.81,NNW,347,11.0,17.0,73,0.00,,,0.00,VWS V12.07,2013-05-12 05:40:00,
2013-05-12 01:58:00,52.0,44.0,29.81,WNW,284,5.0,14.0,74,0.00,,,0.00,VWS V12.07,2013-05-12 05:58:00,
2013-05-12 02:10:00,51.4,44.1,29.81,NW,323,7.0,13.0,76,0.00,,,0.00,VWS V12.07,2013-05-12 06:10:00,
2013-05-12 02:28:00,50.8,43.2,29.81,WNW,300,3.0,15.0,75,0.00,,,0.00,VWS V12.07,2013-05-12 06:28:00,
2013-05-12 02:40:00,50.1,42.8,29.82,WNW,290,7.0,13.0,76,0.00,,,0.00,VWS V12.07,2013-05-12 06:40:00,
2013-05-12 02:58:00,49.9,42.3,29.81,West,265,8.0,13.0,75,0.00,,,0.00,VWS V12.07,2013-05-12 06:58:00,
2013-05-12 03:10:00,49.2,41.3,29.80,NW,313,3.0,12.0,74,0.00,,,0.00,VWS V12.07,2013-05-12 07:10:00,
2013-05-12 03:28:00,49.1,41.2,29.82,NNW,331,6.0,19.0,74,0.00,,,0.00,VWS V12.07,2013-05-12 07:28:00,
2013-05-12 03:40:00,48.8,41.9,29.82,WNW,284,0.0,17.0,77,0.00,,,0.00,VWS V12.07,2013-05-12 07:40:00,
2013-05-12 03:58:00,48.6,41.7,29.82,WNW,294,3.0,15.0,77,0.00,,,0.00,VWS V12.07,2013-05-12 07:58:00,
2013-05-12 04:10:00,48.3,41.4,29.82,NW,310,7.0,13.0,77,0.00,,,0.00,VWS V12.07,2013-05-12 08:10:00,
2013-05-12 04:28:00,48.0,41.2,29.81,West,279,4.0,14.0,77,0.00,,,0.00,VWS V12.07,2013-05-12 08:28:00,
2013-05-12 04:40:00,47.9,40.7,29.80,WNW,294,5.0,21.0,76,0.00,,,0.00,VWS V12.07,2013-05-12 08:40:00,
2013-05-12 04:58:00,47.6,41.1,29.80,WNW,294,9.0,20.0,78,0.00,,,0.00,VWS V12.07,2013-05-12 08:58:00,
2013-05-12 05:10:00,47.7,41.5,29.81,WNW,287,7.0,15.0,79,0.00,,,0.00,VWS V12.07,2013-05-12 09:10:00,
2013-05-12 05:28:00,47.6,41.8,29.82,WNW,292,2.0,15.0,80,0.00,,,0.00,VWS V12.07,2013-05-12 09:28:00,
2013-05-12 05:40:00,47.4,41.9,29.83,WNW,290,13.0,19.0,81,0.00,,,0.00,VWS V12.07,2013-05-12 09:40:00,
2013-05-12 05:58:00,47.4,41.9,29.83,NW,315,5.0,18.0,81,0.00,,,0.00,VWS V12.07,2013-05-12 09:58:00,
2013-05-12 06:10:00,47.4,42.2,29.83,NW,321,3.0,17.0,82,0.00,,,0.00,VWS V12.07,2013-05-12 10:10:00,
2013-05-12 06:28:00,47.6,42.7,29.84,WNW,290,0.0,13.0,83,0.00,,,0.00,VWS V12.07,2013-05-12 10:28:00,
2013-05-12 06:40:00,47.6,43.0,29.83,NW,305,5.0,7.0,84,0.00,,,0.00,VWS V12.07,2013-05-12 10:40:00,
2013-05-12 06:58:00,47.9,43.3,29.83,WNW,284,10.0,13.0,84,0.00,,,0.00,VWS V12.07,2013-05-12 10:58:00,
2013-05-12 07:10:00,48.5,42.3,29.83,West,281,2.0,14.0,79,0.00,,,0.00,VWS V12.07,2013-05-12 11:10:00,
2013-05-12 07:28:00,48.8,41.9,29.84,West,259,10.0,17.0,77,0.00,,,0.00,VWS V12.07,2013-05-12 11:28:00,
2013-05-12 07:40:00,48.6,39.6,29.84,West,263,10.0,18.0,71,0.00,,,0.00,VWS V12.07,2013-05-12 11:40:00,
2013-05-12 07:58:00,48.9,38.8,29.84,North,351,10.0,20.0,68,0.00,,,0.00,VWS V12.07,2013-05-12 11:58:00,
2013-05-12 08:10:00,49.1,39.4,29.84,WNW,292,10.0,20.0,69,0.00,,,0.00,VWS V12.07,2013-05-12 12:10:00,
2013-05-12 08:28:00,49.1,39.0,29.85,West,279,6.0,20.0,68,0.00,,,0.00,VWS V12.07,2013-05-12 12:28:00,
2013-05-12 08:40:00,48.9,38.4,29.85,WNW,294,13.0,24.0,67,0.00,,,0.00,VWS V12.07,2013-05-12 12:40:00,
2013-05-12 08:58:00,49.1,39.0,29.85,NW,311,20.0,20.0,68,0.00,,,0.00,VWS V12.07,2013-05-12 12:58:00,
2013-05-12 09:10:00,49.4,38.1,29.86,NW,313,13.0,21.0,65,0.00,,,0.00,VWS V12.07,2013-05-12 13:10:00,
2013-05-12 09:28:00,50.1,39.2,29.88,WNW,300,3.0,17.0,66,0.00,,,0.00,VWS V12.07,2013-05-12 13:28:00,
2013-05-12 09:40:00,49.9,39.4,29.88,NNW,331,3.0,16.0,67,0.00,,,0.00,VWS V12.07,2013-05-12 13:40:00,
2013-05-12 09:58:00,49.8,36.9,29.89,NW,313,3.0,16.0,61,0.00,,,0.00,VWS V12.07,2013-05-12 13:58:00,
2013-05-12 10:10:00,50.2,38.1,29.88,North,10,7.0,18.0,63,0.00,,,0.00,VWS V12.07,2013-05-12 14:10:00,
2013-05-12 10:28:00,50.5,38.0,29.88,NW,311,1.0,13.0,62,0.00,,,0.00,VWS V12.07,2013-05-12 14:28:00,
2013-05-12 10:40:00,49.1,35.4,29.89,NW,305,9.0,21.0,59,0.00,,,0.00,VWS V12.07,2013-05-12 14:40:00,
2013-05-12 10:58:00,49.5,35.3,29.90,NNW,332,5.0,20.0,58,0.00,,,0.00,VWS V12.07,2013-05-12 14:58:00,
2013-05-12 11:10:00,49.4,35.3,29.90,SW,232,5.0,17.0,58,0.00,,,0.00,VWS V12.07,2013-05-12 15:10:00,
2013-05-12 11:28:00,49.2,35.9,29.90,West,274,14.0,19.0,60,0.00,,,0.00,VWS V12.07,2013-05-12 15:28:00,
2013-05-12 11:40:00,49.4,34.8,29.91,West,266,11.0,22.0,57,0.00,,,0.00,VWS V12.07,2013-05-12 15:40:00,
2013-05-12 11:58:00,49.5,34.0,29.91,WNW,298,12.0,21.0,55,0.00,,,0.00,VWS V12.07,2013-05-12 15:58:00,
2013-05-12 12:10:00,49.8,34.8,29.91,West,279,9.0,22.0,56,0.00,,,0.00,VWS V12.07,2013-05-12 16:10:00,
2013-05-12 12:28:00,50.2,35.6,29.92,West,271,14.0,18.0,57,0.00,,,0.00,VWS V12.07,2013-05-12 16:28:00,
2013-05-12 12:40:00,49.9,34.4,29.93,WNW,300,5.0,22.0,55,0.00,,,0.00,VWS V12.07,2013-05-12 16:40:00,
2013-05-12 12:58:00,49.9,35.7,29.93,NE,40,11.0,18.0,58,0.00,,,0.00,VWS V12.07,2013-05-12 16:58:00,
2013-05-12 13:10:00,50.5,35.0,29.93,NE,46,3.0,16.0,55,0.00,,,0.00,VWS V12.07,2013-05-12 17:10:00,
2013-05-12 13:28:00,50.7,36.5,29.93,NW,310,13.0,21.0,58,0.00,,,0.00,VWS V12.07,2013-05-12 17:28:00,
2013-05-12 13:40:00,50.7,33.7,29.93,West,260,6.0,22.0,52,0.00,,,0.00,VWS V12.07,2013-05-12 17:40:00,
2013-05-12 13:58:00,50.4,33.9,29.93,WNW,293,13.0,19.0,53,0.00,,,0.00,VWS V12.07,2013-05-12 17:58:00,
2013-05-12 14:10:00,51.0,32.0,29.93,WNW,301,15.0,18.0,48,0.00,,,0.00,VWS V12.07,2013-05-12 18:10:00,
2013-05-12 14:28:00,50.5,31.0,29.94,West,278,15.0,21.0,47,0.00,,,0.00,VWS V12.07,2013-05-12 18:28:00,
2013-05-12 14:40:00,51.9,30.7,29.94,WNW,288,6.0,21.0,44,0.00,,,0.00,VWS V12.07,2013-05-12 18:40:00,
2013-05-12 14:58:00,52.5,32.9,29.93,North,5,4.0,15.0,47,0.00,,,0.00,VWS V12.07,2013-05-12 18:58:00,
2013-05-12 15:10:00,51.9,30.7,29.93,NNW,328,2.0,19.0,44,0.00,,,0.00,VWS V12.07,2013-05-12 19:10:00,
2013-05-12 15:28:00,51.6,29.9,29.95,West,275,7.0,19.0,43,0.00,,,0.00,VWS V12.07,2013-05-12 19:28:00,
2013-05-12 15:40:00,51.9,31.8,29.94,West,269,5.0,25.0,46,0.00,,,0.00,VWS V12.07,2013-05-12 19:40:00,
2013-05-12 15:58:00,52.3,31.6,29.94,NW,314,5.0,17.0,45,0.00,,,0.00,VWS V12.07,2013-05-12 19:58:00,
2013-05-12 16:10:00,51.9,30.1,29.94,NW,311,6.0,17.0,43,0.00,,,0.00,VWS V12.07,2013-05-12 20:10:00,
2013-05-12 16:28:00,52.2,31.5,29.94,West,271,10.0,18.0,45,0.00,,,0.00,VWS V12.07,2013-05-12 20:28:00,
2013-05-12 16:40:00,51.9,31.8,29.94,NNW,331,11.0,19.0,46,0.00,,,0.00,VWS V12.07,2013-05-12 20:40:00,
2013-05-12 16:58:00,51.6,31.0,29.94,WNW,300,6.0,16.0,45,0.00,,,0.00,VWS V12.07,2013-05-12 20:58:00,
2013-05-12 17:10:00,51.6,31.0,29.94,NW,315,7.0,19.0,45,0.00,,,0.00,VWS V12.07,2013-05-12 21:10:00,
2013-05-12 17:28:00,51.0,31.0,29.94,West,278,12.0,23.0,46,0.00,,,0.00,VWS V12.07,2013-05-12 21:28:00,
2013-05-12 17:40:00,50.4,32.0,29.95,NNW,329,4.0,18.0,49,0.00,,,0.00,VWS V12.07,2013-05-12 21:40:00,
2013-05-12 17:58:00,50.8,32.8,29.97,NNW,337,7.0,16.0,50,0.00,,,0.00,VWS V12.07,2013-05-12 21:58:00,
2013-05-12 18:10:00,51.1,32.6,29.96,NW,317,0.0,17.0,49,0.00,,,0.00,VWS V12.07,2013-05-12 22:10:00,
2013-05-12 18:28:00,50.5,32.1,29.96,WNW,292,12.0,14.0,49,0.00,,,0.00,VWS V12.07,2013-05-12 22:28:00,
2013-05-12 18:40:00,49.9,30.5,29.97,WNW,289,14.0,16.0,47,0.00,,,0.00,VWS V12.07,2013-05-12 22:40:00,
2013-05-12 18:58:00,49.6,30.7,29.97,WNW,299,6.0,15.0,48,0.00,,,0.00,VWS V12.07,2013-05-12 22:58:00,
2013-05-12 19:10:00,49.5,30.1,29.97,West,281,1.0,13.0,47,0.00,,,0.00,VWS V12.07,2013-05-12 23:10:00,
2013-05-12 19:28:00,49.4,29.5,29.98,WNW,287,17.0,17.0,46,0.00,,,0.00,VWS V12.07,2013-05-12 23:28:00,
2013-05-12 19:40:00,48.6,30.3,29.98,WNW,294,5.0,10.0,49,0.00,,,0.00,VWS V12.07,2013-05-12 23:40:00,
2013-05-12 19:58:00,48.5,30.7,29.98,West,263,1.0,11.0,50,0.00,,,0.00,VWS V12.07,2013-05-12 23:58:00,
2013-05-12 20:10:00,47.4,30.2,29.99,NW,315,0.0,6.0,51,0.00,,,0.00,VWS V12.07,2013-05-13 00:10:00,
2013-05-12 20:28:00,47.1,29.9,29.99,WNW,299,7.0,13.0,51,0.00,,,0.00,VWS V12.07,2013-05-13 00:28:00,
2013-05-12 20:40:00,46.8,29.2,29.99,WNW,285,0.0,11.0,50,0.00,,,0.00,VWS V12.07,2013-05-13 00:40:00,
2013-05-12 20:58:00,46.4,29.3,29.99,WNW,284,1.0,5.0,51,0.00,,,0.00,VWS V12.07,2013-05-13 00:58:00,
2013-05-12 21:10:00,45.8,30.1,30.01,West,273,0.0,8.0,54,0.00,,,0.00,VWS V12.07,2013-05-13 01:10:00,
2013-05-12 21:28:00,45.1,31.2,30.00,West,272,3.0,5.0,58,0.00,,,0.00,VWS V12.07,2013-05-13 01:28:00,
2013-05-12 21:40:00,43.9,30.1,30.01,WNW,296,2.0,9.0,58,0.00,,,0.00,VWS V12.07,2013-05-13 01:40:00,
2013-05-12 21:58:00,43.8,30.0,30.01,NW,312,0.0,11.0,58,0.00,,,0.00,VWS V12.07,2013-05-13 01:58:00,
2013-05-12 22:10:00,43.1,29.3,30.03,North,355,3.0,10.0,58,0.00,,,0.00,VWS V12.07,2013-05-13 02:10:00,
2013-05-12 22:28:00,43.6,29.4,30.03,WNW,290,10.0,11.0,57,0.00,,,0.00,VWS V12.07,2013-05-13 02:28:00,
2013-05-12 22:40:00,44.2,28.2,30.03,NW,306,8.0,14.0,53,0.00,,,0.00,VWS V12.07,2013-05-13 02:40:00,
2013-05-12 22:58:00,44.5,28.0,30.02,WNW,286,3.0,16.0,52,0.00,,,0.00,VWS V12.07,2013-05-13 02:58:00,
2013-05-12 23:10:00,44.1,28.1,30.02,West,271,6.0,16.0,53,0.00,,,0.00,VWS V12.07,2013-05-13 03:10:00,
2013-05-12 23:28:00,43.9,27.4,30.02,West,276,5.0,13.0,52,0.00,,,0.00,VWS V12.07,2013-05-13 03:28:00,
2013-05-12 23:40:00,43.5,27.5,30.02,WNW,298,10.0,14.0,53,0.00,,,0.00,VWS V12.07,2013-05-13 03:40:00,
2013-05-12 23:58:00,43.3,27.8,30.02,NNW,331,2.0,17.0,54,0.00,,,0.00,VWS V12.07,2013-05-13 03:58:00,